{"data":{"norad_id":57940,"intl_designator":"2023-148F","name":"STARLINK-30711","alt_names":[],"object_type":"PAYLOAD","status":"ACTIVE","operator":null,"country":"US","launch_date":"2023-09-25","launch_site_code":"AFWTR","launch_vehicle":null,"mission":null,"orbit_class":"UNKNOWN","rcs_meters":null,"size_class":null,"mass_kg":null,"dimensions":null,"purposes":["comms"],"wikipedia_slug":null,"has_3d_model":false,"image_url":null,"decayed_at":null,"tle_current":{"epoch":"2026-09-20T05:45:08.946432Z","epoch_age_seconds":160476,"freshness":"FRESH","line1":"1 57940U 23148F   26263.23968688  .00001273  00000+0  48832-4 0  9993","line2":"2 57940  53.1610 198.7838 0001361  84.2040 275.9118 15.34387382168233","mean_motion":15.34387382,"eccentricity":0.0001361,"inclination_deg":53.161,"raan_deg":198.7838,"arg_perigee_deg":84.204,"mean_anomaly_deg":275.9118,"bstar":4.8832e-5,"rev_number":16823,"period_min":93.848529836255,"perigee_km":461.8097003583,"apogee_km":463.67178728017,"semimajor_km":6840.8777438192,"source":"CELESTRAK","updated_at":"2026-09-21T09:00:33.745063Z"}}}